User: anonymous   Login
Location: Unspecified
(0.0000°N, 0.0000°E)
Time: 13:55:08
(UTC+00:00)
Language:

ISS - Orbit

View from above orbital plane
View from above orbital plane
View from above satellite
View from above satellite

Ground track
Ground track

The orbit data is extracted from the following two-line orbital elements,

1 25544U 98067A   21102.10035103  .00000889  00000-0  24376-4 0  9990
2 25544  51.6438 309.5976 0002856 216.4321 232.0382 15.48882246278351
Epoch (UTC): 12 April 2021 02:24:30
Eccentricity: 0.0002856
inclination: 51.6438°
perigee height: 418 km
apogee height: 422 km
right ascension of ascending node: 309.5976°
argument of perigee: 216.4321°
revolutions per day: 15.48882246
mean anomaly at epoch: 232.0382°
orbit number at epoch: 27835

The dashed part of the orbit path shows where the satellite is in the earth's shadow,  

DLR